Weather in Ternovoye

Russia / Volgograd Oblast     51°02′12″N   43°42′53″E
temp.,
°C
wind,
m/s
gust,
m/s
humid.,
%
clouds,
%
prec.,
mm/h
press.,
hPa
HPBL,
m
27 july, tue
tue2700:00+17e33550 0.0 102224
03:00+16ese22600 0.0 102211
06:00+18sse11560 0.0 102246
09:00+24sw12394 0.0 1022547
12:00+28wnw34335 0.0 10212201
15:00+29nw352811 0.0 10192728
18:00+27nnw463814 0.0 1018647
21:00+20n22622 0.0 101911
28 july, wed
wed2800:00+18nne33680 0.0 101826
03:00+17nw22701 0.0 101814
06:00+19n22655 0.0 101873
09:00+25nw11495 0.0 1018624
12:00+29nw223831 0.0 10172476
15:00+30wnw233094 0.0 10152880
18:00+29sw343670 0.0 1014387
21:00+24ssw114562 0.0 101411
29 july, thu
thu2900:00+21ssw225284 0.0 101416
03:00+20s4651100 0.0 101390
06:00+22s4115099 0.0 1012280
09:00+25sw474180 0.0 1012466
12:00+32wsw8102977 0.0 10103097
15:00+31sw7103668 0.0 10092188
18:00+24sw597062 0.8 1009253
21:00+22wsw3574100 0.8 101080
30 july, fri
fri3000:00+23wsw366828 0.0 1009111
03:00+20wnw33735 0.0 101037
06:00+22wnw12675 0.0 101071
09:00+28s22465 0.0 1010571
12:00+32wsw453563 0.0 10092575
15:00+33wsw353260 0.1 10082541
18:00+20nne4788100 3.9 1009152
21:00+19sse3594100 9.1 1010141
31 july, sat
sat3100:00+19s2593100 0.3 1010127
03:00+19wsw2594100 0.4 1009128
06:00+20s238730 0.3 1010114
09:00+26ssw33660 0.3 1010622
12:00+30wsw34470 0.0 10091495
15:00+32wsw353894 0.0 10082556
18:00+25n22671 0.9 100936
21:00+23s11705 0.9 101011